| time (UTC) | temp F | wind direction | speed knots | gust knots | rain 1hr in | rain 24hr in | rain mn in | humidity % | barometer mb |
| 20260503201502 | 64 | 303 | 4.3 | 7.8 | 0.00 | 0.00 | 0.00 | 44 | 1020.1 |
| 20260503200001 | 62 | 245 | 0.9 | 7.0 | 0.00 | 0.00 | 0.00 | 43 | 1020.3 |
| 20260503194603 | 62 | 310 | 2.6 | 12.2 | 0.00 | 0.00 | 0.00 | 46 | 1020.4 |
| 20260503193100 | 64 | 249 | 0.0 | 6.1 | 0.00 | 0.00 | 0.00 | 46 | 1020.4 |
| 20260503191557 | 63 | 25 | 1.7 | 7.0 | 0.00 | 0.00 | 0.00 | 43 | 1020.6 |
| 20260503190055 | 63 | 218 | 0.9 | 4.3 | 0.00 | 0.00 | 0.00 | 50 | 1020.7 |
| 20260503184610 | 61 | 293 | 0.0 | 8.7 | 0.00 | 0.00 | 0.00 | 47 | 1020.9 |
| 20260503183100 | 61 | 300 | 1.7 | 7.0 | 0.00 | 0.00 | 0.00 | 46 | 1021.1 |
| 20260503181555 | 61 | 289 | 0.9 | 7.8 | 0.00 | 0.00 | 0.00 | 54 | 1021.3 |
| 20260503180054 | 60 | 293 | 3.5 | 7.0 | 0.00 | 0.00 | 0.00 | 54 | 1021.5 |
| 20260503174551 | 62 | 323 | 0.9 | 3.5 | 0.00 | 0.00 | 0.00 | 49 | 1021.7 |
| 20260503173049 | 60 | 296 | 0.9 | 7.0 | 0.00 | 0.00 | 0.00 | 55 | 1021.8 |
| 20260503171608 | 59 | 333 | 0.0 | 6.1 | 0.00 | 0.00 | 0.00 | 49 | 1022.0 |
| 20260503081537 | 43 | 37 | 0.0 | 0.9 | 0.00 | 0.00 | 0.00 | 80 | 1020.3 |
| 20260503071540 | 43 | 359 | 0.0 | 0.0 | 0.00 | 0.00 | 0.00 | 81 | 1019.7 |
| 20260503054522 | 47 | 335 | 0.0 | 0.0 | 0.00 | 0.00 | 0.00 | 77 | 1019.5 |
| 20260503053015 | 47 | 335 | 0.0 | 0.9 | 0.00 | 0.00 | 0.00 | 78 | 1019.6 |
| 20260503051514 | 47 | 309 | 0.0 | 0.0 | 0.00 | 0.00 | 0.00 | 77 | 1019.6 |
| 20260503050011 | 46 | 309 | 0.0 | 0.9 | 0.00 | 0.00 | 0.00 | 77 | 1019.5 |
| 20260503044517 | 46 | 17 | 0.0 | 0.9 | 0.00 | 0.00 | 0.00 | 77 | 1019.5 |
| 20260503043011 | 47 | 17 | 0.0 | 0.0 | 0.00 | 0.00 | 0.00 | 75 | 1019.3 |
| 20260503041506 | 47 | 17 | 0.0 | 0.0 | 0.00 | 0.00 | 0.00 | 75 | 1019.0 |
| 20260503040004 | 47 | 16 | 0.0 | 0.9 | 0.00 | 0.00 | 0.00 | 75 | 1019.1 |
| 20260503034504 | 47 | 341 | 0.0 | 0.9 | 0.00 | 0.00 | 0.00 | 74 | 1018.9 |
| 20260503033003 | 47 | 5 | 0.0 | 0.9 | 0.00 | 0.00 | 0.00 | 73 | 1019.0 |
| 20260503031503 | 47 | 319 | 0.0 | 0.9 | 0.00 | 0.00 | 0.00 | 74 | 1018.9 |
| 20260503030001 | 47 | 288 | 0.0 | 1.7 | 0.00 | 0.00 | 0.00 | 75 | 1018.8 |
| 20260503024600 | 46 | 28 | 0.0 | 0.0 | 0.00 | 0.00 | 0.00 | 74 | 1018.8 |
| 20260503023110 | 46 | 28 | 0.0 | 0.9 | 0.00 | 0.00 | 0.00 | 74 | 1018.7 |
| 20260503021601 | 46 | 29 | 0.0 | 0.0 | 0.00 | 0.00 | 0.00 | 73 | 1018.4 |
| 20260503020058 | 47 | 29 | 0.0 | 0.9 | 0.00 | 0.00 | 0.00 | 71 | 1018.3 |
| 20260503014551 | 47 | 32 | 0.0 | 0.9 | 0.00 | 0.00 | 0.00 | 70 | 1017.9 |
| 20260503013051 | 48 | 32 | 0.0 | 0.0 | 0.00 | 0.00 | 0.00 | 69 | 1017.7 |
| 20260503011558 | 48 | 32 | 0.0 | 0.9 | 0.00 | 0.00 | 0.00 | 67 | 1017.5 |
| 20260503010045 | 49 | 328 | 0.0 | 0.0 | 0.00 | 0.00 | 0.00 | 66 | 1017.4 |
| 20260503004546 | 51 | 328 | 0.0 | 0.0 | 0.00 | 0.00 | 0.00 | 63 | 1017.2 |
| 20260503003043 | 52 | 328 | 0.0 | 0.9 | 0.00 | 0.00 | 0.00 | 59 | 1016.8 |
| 20260503001543 | 54 | 6 | 0.0 | 1.7 | 0.00 | 0.00 | 0.00 | 57 | 1016.8 |
| 20260503000056 | 56 | 316 | 0.9 | 2.6 | 0.00 | 0.00 | 0.00 | 54 | 1016.5 |
| 20260502234543 | 57 | 300 | 2.6 | 7.8 | 0.00 | 0.00 | 0.00 | 51 | 1016.4 |
| 20260502233040 | 57 | 290 | 1.7 | 7.0 | 0.00 | 0.00 | 0.00 | 54 | 1016.2 |
| 20260502231540 | 57 | 307 | 2.6 | 6.1 | 0.00 | 0.00 | 0.00 | 51 | 1016.2 |
| 20260502230038 | 58 | 329 | 3.5 | 7.0 | 0.00 | 0.00 | 0.00 | 50 | 1016.1 |
| 20260502224538 | 59 | 18 | 2.6 | 7.8 | 0.00 | 0.00 | 0.00 | 48 | 1016.1 |
| 20260502223038 | 59 | 299 | 3.5 | 7.0 | 0.00 | 0.00 | 0.00 | 45 | 1016.0 |
| 20260502221538 | 61 | 289 | 3.5 | 12.2 | 0.00 | 0.00 | 0.00 | 47 | 1015.8 |
| 20260502220043 | 61 | 48 | 3.5 | 8.7 | 0.00 | 0.00 | 0.00 | 48 | 1015.7 |
| 20260502214537 | 60 | 307 | 1.7 | 6.1 | 0.00 | 0.00 | 0.00 | 50 | 1015.6 |
| 20260502213040 | 60 | 306 | 3.5 | 12.2 | 0.00 | 0.00 | 0.00 | 46 | 1015.4 |
| 20260502211537 | 60 | 327 | 3.5 | 7.0 | 0.00 | 0.00 | 0.00 | 46 | 1015.3 |
| 20260502210034 | 61 | 328 | 3.5 | 8.7 | 0.00 | 0.00 | 0.00 | 45 | 1015.2 |
| 20260502204536 | 60 | 306 | 1.7 | 8.7 | 0.00 | 0.00 | 0.00 | 44 | 1015.3 |
| 20260502203032 | 61 | 282 | 2.6 | 7.8 | 0.00 | 0.00 | 0.00 | 47 | 1015.3 |